Location: Bellerive
(46.9237°N, 7.0223°E)
Time: 11:15:00
(UTC+00:00)

STARLINK-29 - Pass Details

Date: 09 April 2020
Orbit: 387 x 401 km, 53.0° (Epoch: 26 May)

Event Time Altitude Azimuth Distance (km) Brightness Sun altitude
Rises 18:35:37 0° 217° (SW) 2,271 7.1 -4.6°
Reaches altitude 10° 18:37:46 10° 208° (SSW) 1,422 5.9 -5.0°
Maximum altitude 18:40:41 34° 141° (SE) 670 3.7 -5.4°
Drops below altitude 10° 18:43:39 10° 74° (ENE) 1,439 5.3 -5.9°
Enters shadow 18:45:24 - 66° (ENE) 2,129 6.2 -6.2°
